Eiho Maru No.5 — JG5332 — position and weather

sailwx.info

Track history (hours):
 
Tides and Currents Weather Stations Pressure Air Temp Water Temp Dewpoint Dewpoint Depression Visibility Wind Speed Wind Dir Waves Ship Positions

Eiho Maru No.5

Last reported at 2018-Feb-20 22:47 UTC. Time now 2018-Feb-21 00:01 UTC.
Position N 35°30' E 140°02'.

Length 90 m; draft 4.5 m.

Type: Ship (hazmat cat A). MMSI: 431000692.

Date/timePositionNaut miles runAvg speedWind from/ knotsBaromVisibWave heightAir tempDewpointWater temp
2018-Feb-20 22:47N 35°30' E 140°02'1 4.5
2018-Feb-20 22:29N 35°31' E 140°00'1 2.5
2018-Feb-20 22:00N 35°31' E 139°60'510.1
2018-Feb-20 21:31N 35°35' E 139°55'2 1.2
2018-Feb-20 19:29N 35°36' E 139°52'0 0.0
2018-Feb-20 17:35N 35°36' E 139°52'0 0.1
2018-Feb-20 17:29N 35°36' E 139°52'0 0.0
2018-Feb-20 15:05N 35°36' E 139°52'0 0.0
2018-Feb-20 09:20N 35°36' E 139°52'2 7.4
2018-Feb-20 09:00N 35°37' E 139°50'0 0.7
2018-Feb-20 08:24N 35°37' E 139°50'0 0.0
2018-Feb-20 08:00N 35°37' E 139°50'0 0.1
2018-Feb-20 07:12N 35°37' E 139°50'0 0.2
2018-Feb-20 06:54N 35°37' E 139°50'0 1.1
2018-Feb-20 06:30N 35°37' E 139°50'2 3.9
2018-Feb-20 05:59N 35°35' E 139°51'0 0.1
2018-Feb-20 05:17N 35°35' E 139°52'0 0.1
2018-Feb-20 04:56N 35°35' E 139°52'3 7.3
2018-Feb-20 04:30N 35°34' E 139°55'510.1
2018-Feb-20 04:00N 35°31' E 140°00'2 3.4
2018-Feb-20 03:26N 35°30' E 140°02'0 0.1
2018-Feb-20 03:00N 35°30' E 140°02'0 0.1
2018-Feb-20 02:30N 35°30' E 140°02'0 0.0
2018-Feb-20 01:37N 35°30' E 140°02'0 0.0
2018-Feb-20 01:27N 35°30' E 140°02'1 2.0
2018-Feb-20 01:00N 35°30' E 140°01'5 9.4
2018-Feb-20 00:30N 35°34' E 139°57'4 1.1
2018-Feb-19 20:38N 35°35' E 139°52'0 0.0
2018-Feb-19 20:23N 35°35' E 139°52'0 0.0
2018-Feb-19 18:41N 35°35' E 139°52'0 0.0
2018-Feb-19 16:38N 35°35' E 139°52'0 0.0
2018-Feb-19 08:21N 35°35' E 139°52'3 7.0
2018-Feb-19 07:58N 35°37' E 139°50'0 0.0
2018-Feb-19 07:21N 35°37' E 139°50'0 0.0
2018-Feb-19 06:57N 35°37' E 139°50'0 0.0
2018-Feb-19 06:03N 35°37' E 139°50'0 0.2
2018-Feb-19 05:42N 35°37' E 139°50'1 4.4
2018-Feb-19 05:27N 35°36' E 139°50'4 8.1
2018-Feb-19 05:00N 35°34' E 139°54'510.1
2018-Feb-19 04:30N 35°32' E 139°59'3 1.1
2018-Feb-19 01:43N 35°30' E 140°02'1 5.5
2018-Feb-19 01:31N 35°30' E 140°01'2 4.7
2018-Feb-19 01:01N 35°32' E 139°58'510.8
2018-Feb-19 00:30N 35°35' E 139°53'3 4.8
2018-Feb-18 23:46N 35°37' E 139°50'0 0.0
2018-Feb-18 22:43N 35°37' E 139°50'0 0.0
2018-Feb-18 22:19N 35°37' E 139°50'0 0.1
2018-Feb-18 21:58N 35°37' E 139°50'2 4.0
2018-Feb-18 21:30N 35°36' E 139°51'1 0.2
2018-Feb-18 16:48N 35°36' E 139°52'0 0.0
2018-Feb-18 16:18N 35°36' E 139°52'0 0.0
2018-Feb-18 05:57N 35°36' E 139°52'5 8.7
2018-Feb-18 05:25N 35°33' E 139°57'410.0
2018-Feb-18 05:00N 35°30' E 140°01'1 0.3
2018-Feb-18 01:25N 35°30' E 140°02'2 5.2
2018-Feb-18 00:59N 35°31' E 139°60'1 1.3
2018-Feb-18 00:30N 35°32' E 139°60'510.6
2018-Feb-18 00:00N 35°35' E 139°55'2 0.1
2018-Feb-17 11:57N 35°36' E 139°53'0 0.0
2018-Feb-17 08:10N 35°36' E 139°53'1 8.3
2018-Feb-17 08:00N 35°36' E 139°51'2 1.5
2018-Feb-17 06:46N 35°37' E 139°50'0 0.0
2018-Feb-17 05:39N 35°37' E 139°50'0 0.2
2018-Feb-17 05:27N 35°37' E 139°50'2 4.5
2018-Feb-17 05:00N 35°35' E 139°51'610.3
2018-Feb-17 04:27N 35°32' E 139°57'510.0
2018-Feb-17 04:00N 35°30' E 140°02'0 0.1
2018-Feb-17 01:38N 35°30' E 140°02'0 2.1
2018-Feb-17 01:30N 35°30' E 140°02'4 7.5
2018-Feb-17 01:00N 35°32' E 139°58'511.0
2018-Feb-17 00:31N 35°35' E 139°52'3 1.2
2018-Feb-16 21:59N 35°37' E 139°50'3 5.4
2018-Feb-16 21:29N 35°35' E 139°52'0 0.0
2018-Feb-16 18:27N 35°35' E 139°52'0 0.0
2018-Feb-16 18:00N 35°35' E 139°52'0 0.0
2018-Feb-16 17:30N 35°35' E 139°52'0 0.0
2018-Feb-16 15:12N 35°35' E 139°52'0 0.0
2018-Feb-16 14:57N 35°35' E 139°52'0 0.0
2018-Feb-16 11:39N 35°35' E 139°52'1 6.5
2018-Feb-16 11:30N 35°34' E 139°53'510.2
2018-Feb-16 11:00N 35°32' E 139°58'4 1.0
2018-Feb-16 07:19N 35°30' E 140°02'0 0.0
2018-Feb-16 06:46N 35°30' E 140°02'0 0.0
2018-Feb-16 06:28N 35°30' E 140°02'0 0.1
2018-Feb-16 05:52N 35°30' E 140°02'2 5.3
2018-Feb-16 05:29N 35°31' E 139°60'4 8.8
2018-Feb-16 05:00N 35°34' E 139°56'4 1.9
2018-Feb-16 03:00N 35°35' E 139°52'2 4.7
2018-Feb-16 02:30N 35°37' E 139°50'0 0.0
2018-Feb-16 01:58N 35°37' E 139°50'0 0.0
2018-Feb-16 01:30N 35°37' E 139°50'0 0.0
2018-Feb-16 00:59N 35°37' E 139°50'0 0.0
2018-Feb-16 00:30N 35°37' E 139°50'0 0.0
2018-Feb-15 23:59N 35°37' E 139°50'2 2.9
2018-Feb-15 23:26N 35°36' E 139°50'2 0.4
2018-Feb-15 19:35N 35°35' E 139°52'0 0.0
2018-Feb-15 19:29N 35°35' E 139°52'0 0.0
2018-Feb-15 18:59N 35°35' E 139°52'0 0.0
2018-Feb-15 18:29N 35°35' E 139°52'0 0.0
2018-Feb-15 17:55N 35°35' E 139°52'0 0.0
2018-Feb-15 17:19N 35°35' E 139°52'0 0.1
2018-Feb-15 16:55N 35°35' E 139°52'0 0.0
2018-Feb-15 16:28N 35°35' E 139°52'0 0.0
2018-Feb-15 15:55N 35°35' E 139°52'0 0.0
2018-Feb-15 14:49N 35°35' E 139°52'0 0.1
2018-Feb-15 14:25N 35°35' E 139°52'0 0.0
2018-Feb-15 13:58N 35°35' E 139°52'0 0.1
2018-Feb-15 13:28N 35°35' E 139°52'0 0.0
2018-Feb-15 12:25N 35°35' E 139°52'0 0.0
2018-Feb-15 11:55N 35°35' E 139°52'0 0.0
2018-Feb-15 10:42N 35°35' E 139°52'0 0.0
2018-Feb-15 10:30N 35°35' E 139°52'0 0.0
2018-Feb-15 10:00N 35°35' E 139°52'0 0.7
2018-Feb-15 09:28N 35°35' E 139°53'510.3
2018-Feb-15 09:01N 35°32' E 139°58'4 8.4
2018-Feb-15 08:30N 35°30' E 140°02'0 0.0
2018-Feb-15 07:50N 35°30' E 140°02'0 0.0
2018-Feb-15 07:20N 35°30' E 140°02'0 0.0
2018-Feb-15 06:56N 35°30' E 140°02'0 0.1
2018-Feb-15 06:20N 35°30' E 140°02'0 0.1
2018-Feb-15 05:44N 35°30' E 140°02'0 0.0
2018-Feb-15 05:20N 35°30' E 140°02'0 0.0
2018-Feb-15 04:44N 35°30' E 140°02'0 0.1
2018-Feb-15 04:04N 35°30' E 140°02'0 0.6
2018-Feb-15 04:00N 35°30' E 140°02'2 4.8
2018-Feb-15 03:30N 35°31' E 139°60'3 5.7
2018-Feb-15 03:00N 35°33' E 139°57'510.4
2018-Feb-15 02:30N 35°36' E 139°51'2 1.3
2018-Feb-15 00:57N 35°37' E 139°50'0 0.0
2018-Feb-15 00:24N 35°37' E 139°50'0 0.2
2018-Feb-15 00:00N 35°37' E 139°50'3 5.4
2018-Feb-14 23:30N 35°35' E 139°52'0 0.1
2018-Feb-14 22:58N 35°35' E 139°52'0 0.0
2018-Feb-14 21:56N 35°35' E 139°52'0 0.0
2018-Feb-14 12:06N 35°35' E 139°52'1 4.2
2018-Feb-14 11:59N 35°35' E 139°52'4 9.3
2018-Feb-14 11:30N 35°33' E 139°57'5 9.2
2018-Feb-14 11:00N 35°30' E 140°02'0 0.5
2018-Feb-14 10:30N 35°30' E 140°02'0 0.0
2018-Feb-14 09:55N 35°30' E 140°02'0 0.0
2018-Feb-14 09:29N 35°30' E 140°02'0 0.0
2018-Feb-14 09:00N 35°30' E 140°02'0 0.0
2018-Feb-14 08:30N 35°30' E 140°02'0 0.0
2018-Feb-14 08:00N 35°30' E 140°02'0 0.0
2018-Feb-14 07:28N 35°30' E 140°02'0 0.0
2018-Feb-14 06:57N 35°30' E 140°02'0 0.3
2018-Feb-14 06:30N 35°30' E 140°02'3 5.1
2018-Feb-14 06:00N 35°31' E 139°59'3 6.8
2018-Feb-14 05:30N 35°32' E 139°55'5 9.8
2018-Feb-14 05:00N 35°35' E 139°51'2 0.8
2018-Feb-14 02:31N 35°37' E 139°50'0 0.7
2018-Feb-14 02:30N 35°37' E 139°50'3 6.8
2018-Feb-14 02:00N 35°34' E 139°52'3 6.4
2018-Feb-14 01:30N 35°33' E 139°56'510.1
2018-Feb-14 01:00N 35°30' E 140°01'1 0.3
2018-Feb-13 22:32N 35°30' E 140°02'0 0.2
2018-Feb-13 22:30N 35°30' E 140°02'2 4.6
2018-Feb-13 22:00N 35°31' E 139°60'510.9
2018-Feb-13 21:30N 35°34' E 139°54'2 1.6
2018-Feb-13 20:11N 35°35' E 139°52'0 0.1
2018-Feb-13 19:59N 35°35' E 139°52'0 0.0
2018-Feb-13 16:43N 35°35' E 139°52'0 0.0
2018-Feb-13 16:25N 35°35' E 139°52'0 0.0
2018-Feb-13 11:37N 35°35' E 139°52'0 0.0
2018-Feb-13 11:07N 35°35' E 139°52'0 0.0
2018-Feb-13 09:58N 35°35' E 139°52'0 0.0
2018-Feb-13 09:28N 35°35' E 139°52'0 0.0
2018-Feb-13 08:58N 35°35' E 139°52'0 0.2
2018-Feb-13 08:26N 35°35' E 139°52'3 5.3
2018-Feb-13 07:57N 35°37' E 139°50'0 0.0
2018-Feb-13 07:30N 35°37' E 139°50'0 0.0
2018-Feb-13 06:45N 35°37' E 139°50'0 0.0
2018-Feb-13 06:15N 35°37' E 139°50'0 0.1
2018-Feb-13 05:51N 35°37' E 139°50'1 3.0
2018-Feb-13 05:29N 35°36' E 139°50'5 9.7
2018-Feb-13 04:57N 35°33' E 139°55'4 9.9
2018-Feb-13 04:30N 35°31' E 140°00'2 0.8
2018-Feb-13 02:04N 35°30' E 140°02'0 1.9
2018-Feb-13 02:00N 35°30' E 140°02'5 9.8
2018-Feb-13 01:30N 35°32' E 139°57'510.4
2018-Feb-13 01:00N 35°35' E 139°51'2 1.0
2018-Feb-12 22:48N 35°37' E 139°50'0 0.0
2018-Feb-12 22:21N 35°37' E 139°50'0 0.2
2018-Feb-12 21:51N 35°37' E 139°50'2 5.7
2018-Feb-12 21:30N 35°35' E 139°51'1 0.1
2018-Feb-12 12:49N 35°35' E 139°52'0 0.0
2018-Feb-12 10:10N 35°35' E 139°52'0 0.0
2018-Feb-12 09:43N 35°35' E 139°52'0 1.9
2018-Feb-12 09:30N 35°35' E 139°52'5 9.4
2018-Feb-12 08:58N 35°32' E 139°58'4 9.3
2018-Feb-12 08:30N 35°30' E 140°02'0 0.0
2018-Feb-12 03:52N 35°30' E 140°02'2 4.0
2018-Feb-12 03:30N 35°31' E 140°00'4 8.6
2018-Feb-12 03:00N 35°33' E 139°56'510.8
2018-Feb-12 02:30N 35°36' E 139°50'2 2.8
2018-Feb-12 01:57N 35°37' E 139°50'0 0.0
2018-Feb-12 01:30N 35°37' E 139°50'0 0.1
2018-Feb-12 00:57N 35°37' E 139°50'0 0.1
2018-Feb-12 00:12N 35°37' E 139°50'0 0.4
2018-Feb-11 23:59N 35°37' E 139°50'3 5.7
2018-Feb-11 23:31N 35°35' E 139°52'0 0.6
2018-Feb-11 23:00N 35°35' E 139°52'0 0.0
2018-Feb-11 22:09N 35°35' E 139°52'0 0.0
2018-Feb-11 16:24N 35°35' E 139°52'0 0.0
2018-Feb-11 15:30N 35°35' E 139°52'0 0.0
2018-Feb-11 12:39N 35°35' E 139°52'0 0.0
2018-Feb-11 07:24N 35°35' E 139°52'0 0.0
2018-Feb-11 06:48N 35°35' E 139°52'0 0.0
2018-Feb-11 06:24N 35°35' E 139°52'3 7.1
2018-Feb-11 05:58N 35°33' E 139°55'5 9.9
2018-Feb-11 05:30N 35°31' E 139°60'2 0.8
2018-Feb-11 03:11N 35°30' E 140°02'0 0.2
2018-Feb-11 02:59N 35°30' E 140°02'1 3.0
2018-Feb-11 02:30N 35°31' E 140°00'1 2.0
2018-Feb-11 01:59N 35°31' E 139°60'4 9.1
2018-Feb-11 01:30N 35°34' E 139°55'3 1.6
2018-Feb-10 23:33N 35°36' E 139°52'0 0.0
2018-Feb-10 23:30N 35°36' E 139°52'0 0.0
2018-Feb-10 22:51N 35°36' E 139°52'  
Track history (hours):
 
Tides and Currents Weather Stations Pressure Air Temp Water Temp Dewpoint Dewpoint Depression Visibility Wind Speed Wind Dir Waves Ship Positions

Eiho Maru No.5

Last reported at 2018-Feb-20 22:47 UTC. Time now 2018-Feb-21 00:01 UTC.
Position N 35°30' E 140°02'.

Length 90 m; draft 4.5 m.

Type: Ship (hazmat cat A). MMSI: 431000692.

Date/timePositionNaut miles runAvg speedWind from/ knotsBaromVisibWave heightAir tempDewpointWater temp
2018-Feb-20 22:47N 35°30' E 140°02'1 4.5
2018-Feb-20 22:29N 35°31' E 140°00'1 2.5
2018-Feb-20 22:00N 35°31' E 139°60'510.1
2018-Feb-20 21:31N 35°35' E 139°55'2 1.2
2018-Feb-20 19:29N 35°36' E 139°52'0 0.0
2018-Feb-20 17:35N 35°36' E 139°52'0 0.1
2018-Feb-20 17:29N 35°36' E 139°52'0 0.0
2018-Feb-20 15:05N 35°36' E 139°52'0 0.0
2018-Feb-20 09:20N 35°36' E 139°52'2 7.4
2018-Feb-20 09:00N 35°37' E 139°50'0 0.7
2018-Feb-20 08:24N 35°37' E 139°50'0 0.0
2018-Feb-20 08:00N 35°37' E 139°50'0 0.1
2018-Feb-20 07:12N 35°37' E 139°50'0 0.2
2018-Feb-20 06:54N 35°37' E 139°50'0 1.1
2018-Feb-20 06:30N 35°37' E 139°50'2 3.9
2018-Feb-20 05:59N 35°35' E 139°51'0 0.1
2018-Feb-20 05:17N 35°35' E 139°52'0 0.1
2018-Feb-20 04:56N 35°35' E 139°52'3 7.3
2018-Feb-20 04:30N 35°34' E 139°55'510.1
2018-Feb-20 04:00N 35°31' E 140°00'2 3.4
2018-Feb-20 03:26N 35°30' E 140°02'0 0.1
2018-Feb-20 03:00N 35°30' E 140°02'0 0.1
2018-Feb-20 02:30N 35°30' E 140°02'0 0.0
2018-Feb-20 01:37N 35°30' E 140°02'0 0.0
2018-Feb-20 01:27N 35°30' E 140°02'1 2.0
2018-Feb-20 01:00N 35°30' E 140°01'5 9.4
2018-Feb-20 00:30N 35°34' E 139°57'4 1.1
2018-Feb-19 20:38N 35°35' E 139°52'0 0.0
2018-Feb-19 20:23N 35°35' E 139°52'0 0.0
2018-Feb-19 18:41N 35°35' E 139°52'0 0.0
2018-Feb-19 16:38N 35°35' E 139°52'0 0.0
2018-Feb-19 08:21N 35°35' E 139°52'3 7.0
2018-Feb-19 07:58N 35°37' E 139°50'0 0.0
2018-Feb-19 07:21N 35°37' E 139°50'0 0.0
2018-Feb-19 06:57N 35°37' E 139°50'0 0.0
2018-Feb-19 06:03N 35°37' E 139°50'0 0.2
2018-Feb-19 05:42N 35°37' E 139°50'1 4.4
2018-Feb-19 05:27N 35°36' E 139°50'4 8.1
2018-Feb-19 05:00N 35°34' E 139°54'510.1
2018-Feb-19 04:30N 35°32' E 139°59'3 1.1
2018-Feb-19 01:43N 35°30' E 140°02'1 5.5
2018-Feb-19 01:31N 35°30' E 140°01'2 4.7
2018-Feb-19 01:01N 35°32' E 139°58'510.8
2018-Feb-19 00:30N 35°35' E 139°53'3 4.8
2018-Feb-18 23:46N 35°37' E 139°50'0 0.0
2018-Feb-18 22:43N 35°37' E 139°50'0 0.0
2018-Feb-18 22:19N 35°37' E 139°50'0 0.1
2018-Feb-18 21:58N 35°37' E 139°50'2 4.0
2018-Feb-18 21:30N 35°36' E 139°51'1 0.2
2018-Feb-18 16:48N 35°36' E 139°52'0 0.0
2018-Feb-18 16:18N 35°36' E 139°52'0 0.0
2018-Feb-18 05:57N 35°36' E 139°52'5 8.7
2018-Feb-18 05:25N 35°33' E 139°57'410.0
2018-Feb-18 05:00N 35°30' E 140°01'1 0.3
2018-Feb-18 01:25N 35°30' E 140°02'2 5.2
2018-Feb-18 00:59N 35°31' E 139°60'1 1.3
2018-Feb-18 00:30N 35°32' E 139°60'510.6
2018-Feb-18 00:00N 35°35' E 139°55'2 0.1
2018-Feb-17 11:57N 35°36' E 139°53'0 0.0
2018-Feb-17 08:10N 35°36' E 139°53'1 8.3
2018-Feb-17 08:00N 35°36' E 139°51'2 1.5
2018-Feb-17 06:46N 35°37' E 139°50'0 0.0
2018-Feb-17 05:39N 35°37' E 139°50'0 0.2
2018-Feb-17 05:27N 35°37' E 139°50'2 4.5
2018-Feb-17 05:00N 35°35' E 139°51'610.3
2018-Feb-17 04:27N 35°32' E 139°57'510.0
2018-Feb-17 04:00N 35°30' E 140°02'0 0.1
2018-Feb-17 01:38N 35°30' E 140°02'0 2.1
2018-Feb-17 01:30N 35°30' E 140°02'4 7.5
2018-Feb-17 01:00N 35°32' E 139°58'511.0
2018-Feb-17 00:31N 35°35' E 139°52'3 1.2
2018-Feb-16 21:59N 35°37' E 139°50'3 5.4
2018-Feb-16 21:29N 35°35' E 139°52'0 0.0
2018-Feb-16 18:27N 35°35' E 139°52'0 0.0
2018-Feb-16 18:00N 35°35' E 139°52'0 0.0
2018-Feb-16 17:30N 35°35' E 139°52'0 0.0
2018-Feb-16 15:12N 35°35' E 139°52'0 0.0
2018-Feb-16 14:57N 35°35' E 139°52'0 0.0
2018-Feb-16 11:39N 35°35' E 139°52'1 6.5
2018-Feb-16 11:30N 35°34' E 139°53'510.2
2018-Feb-16 11:00N 35°32' E 139°58'4 1.0
2018-Feb-16 07:19N 35°30' E 140°02'0 0.0
2018-Feb-16 06:46N 35°30' E 140°02'0 0.0
2018-Feb-16 06:28N 35°30' E 140°02'0 0.1
2018-Feb-16 05:52N 35°30' E 140°02'2 5.3
2018-Feb-16 05:29N 35°31' E 139°60'4 8.8
2018-Feb-16 05:00N 35°34' E 139°56'4 1.9
2018-Feb-16 03:00N 35°35' E 139°52'2 4.7
2018-Feb-16 02:30N 35°37' E 139°50'0 0.0
2018-Feb-16 01:58N 35°37' E 139°50'0 0.0
2018-Feb-16 01:30N 35°37' E 139°50'0 0.0
2018-Feb-16 00:59N 35°37' E 139°50'0 0.0
2018-Feb-16 00:30N 35°37' E 139°50'0 0.0
2018-Feb-15 23:59N 35°37' E 139°50'2 2.9
2018-Feb-15 23:26N 35°36' E 139°50'2 0.4
2018-Feb-15 19:35N 35°35' E 139°52'0 0.0
2018-Feb-15 19:29N 35°35' E 139°52'0 0.0
2018-Feb-15 18:59N 35°35' E 139°52'0 0.0
2018-Feb-15 18:29N 35°35' E 139°52'0 0.0
2018-Feb-15 17:55N 35°35' E 139°52'0 0.0
2018-Feb-15 17:19N 35°35' E 139°52'0 0.1
2018-Feb-15 16:55N 35°35' E 139°52'0 0.0
2018-Feb-15 16:28N 35°35' E 139°52'0 0.0
2018-Feb-15 15:55N 35°35' E 139°52'0 0.0
2018-Feb-15 14:49N 35°35' E 139°52'0 0.1
2018-Feb-15 14:25N 35°35' E 139°52'0 0.0
2018-Feb-15 13:58N 35°35' E 139°52'0 0.1
2018-Feb-15 13:28N 35°35' E 139°52'0 0.0
2018-Feb-15 12:25N 35°35' E 139°52'0 0.0
2018-Feb-15 11:55N 35°35' E 139°52'0 0.0
2018-Feb-15 10:42N 35°35' E 139°52'0 0.0
2018-Feb-15 10:30N 35°35' E 139°52'0 0.0
2018-Feb-15 10:00N 35°35' E 139°52'0 0.7
2018-Feb-15 09:28N 35°35' E 139°53'510.3
2018-Feb-15 09:01N 35°32' E 139°58'4 8.4
2018-Feb-15 08:30N 35°30' E 140°02'0 0.0
2018-Feb-15 07:50N 35°30' E 140°02'0 0.0
2018-Feb-15 07:20N 35°30' E 140°02'0 0.0
2018-Feb-15 06:56N 35°30' E 140°02'0 0.1
2018-Feb-15 06:20N 35°30' E 140°02'0 0.1
2018-Feb-15 05:44N 35°30' E 140°02'0 0.0
2018-Feb-15 05:20N 35°30' E 140°02'0 0.0
2018-Feb-15 04:44N 35°30' E 140°02'0 0.1
2018-Feb-15 04:04N 35°30' E 140°02'0 0.6
2018-Feb-15 04:00N 35°30' E 140°02'2 4.8
2018-Feb-15 03:30N 35°31' E 139°60'3 5.7
2018-Feb-15 03:00N 35°33' E 139°57'510.4
2018-Feb-15 02:30N 35°36' E 139°51'2 1.3
2018-Feb-15 00:57N 35°37' E 139°50'0 0.0
2018-Feb-15 00:24N 35°37' E 139°50'0 0.2
2018-Feb-15 00:00N 35°37' E 139°50'3 5.4
2018-Feb-14 23:30N 35°35' E 139°52'0 0.1
2018-Feb-14 22:58N 35°35' E 139°52'0 0.0
2018-Feb-14 21:56N 35°35' E 139°52'0 0.0
2018-Feb-14 12:06N 35°35' E 139°52'1 4.2
2018-Feb-14 11:59N 35°35' E 139°52'4 9.3
2018-Feb-14 11:30N 35°33' E 139°57'5 9.2
2018-Feb-14 11:00N 35°30' E 140°02'0 0.5
2018-Feb-14 10:30N 35°30' E 140°02'0 0.0
2018-Feb-14 09:55N 35°30' E 140°02'0 0.0
2018-Feb-14 09:29N 35°30' E 140°02'0 0.0
2018-Feb-14 09:00N 35°30' E 140°02'0 0.0
2018-Feb-14 08:30N 35°30' E 140°02'0 0.0
2018-Feb-14 08:00N 35°30' E 140°02'0 0.0
2018-Feb-14 07:28N 35°30' E 140°02'0 0.0
2018-Feb-14 06:57N 35°30' E 140°02'0 0.3
2018-Feb-14 06:30N 35°30' E 140°02'3 5.1
2018-Feb-14 06:00N 35°31' E 139°59'3 6.8
2018-Feb-14 05:30N 35°32' E 139°55'5 9.8
2018-Feb-14 05:00N 35°35' E 139°51'2 0.8
2018-Feb-14 02:31N 35°37' E 139°50'0 0.7
2018-Feb-14 02:30N 35°37' E 139°50'3 6.8
2018-Feb-14 02:00N 35°34' E 139°52'3 6.4
2018-Feb-14 01:30N 35°33' E 139°56'510.1
2018-Feb-14 01:00N 35°30' E 140°01'1 0.3
2018-Feb-13 22:32N 35°30' E 140°02'0 0.2
2018-Feb-13 22:30N 35°30' E 140°02'2 4.6
2018-Feb-13 22:00N 35°31' E 139°60'510.9
2018-Feb-13 21:30N 35°34' E 139°54'2 1.6
2018-Feb-13 20:11N 35°35' E 139°52'0 0.1
2018-Feb-13 19:59N 35°35' E 139°52'0 0.0
2018-Feb-13 16:43N 35°35' E 139°52'0 0.0
2018-Feb-13 16:25N 35°35' E 139°52'0 0.0
2018-Feb-13 11:37N 35°35' E 139°52'0 0.0
2018-Feb-13 11:07N 35°35' E 139°52'0 0.0
2018-Feb-13 09:58N 35°35' E 139°52'0 0.0
2018-Feb-13 09:28N 35°35' E 139°52'0 0.0
2018-Feb-13 08:58N 35°35' E 139°52'0 0.2
2018-Feb-13 08:26N 35°35' E 139°52'3 5.3
2018-Feb-13 07:57N 35°37' E 139°50'0 0.0
2018-Feb-13 07:30N 35°37' E 139°50'0 0.0
2018-Feb-13 06:45N 35°37' E 139°50'0 0.0
2018-Feb-13 06:15N 35°37' E 139°50'0 0.1
2018-Feb-13 05:51N 35°37' E 139°50'1 3.0
2018-Feb-13 05:29N 35°36' E 139°50'5 9.7
2018-Feb-13 04:57N 35°33' E 139°55'4 9.9
2018-Feb-13 04:30N 35°31' E 140°00'2 0.8
2018-Feb-13 02:04N 35°30' E 140°02'0 1.9
2018-Feb-13 02:00N 35°30' E 140°02'5 9.8
2018-Feb-13 01:30N 35°32' E 139°57'510.4
2018-Feb-13 01:00N 35°35' E 139°51'2 1.0
2018-Feb-12 22:48N 35°37' E 139°50'0 0.0
2018-Feb-12 22:21N 35°37' E 139°50'0 0.2
2018-Feb-12 21:51N 35°37' E 139°50'2 5.7
2018-Feb-12 21:30N 35°35' E 139°51'1 0.1
2018-Feb-12 12:49N 35°35' E 139°52'0 0.0
2018-Feb-12 10:10N 35°35' E 139°52'0 0.0
2018-Feb-12 09:43N 35°35' E 139°52'0 1.9
2018-Feb-12 09:30N 35°35' E 139°52'5 9.4
2018-Feb-12 08:58N 35°32' E 139°58'4 9.3
2018-Feb-12 08:30N 35°30' E 140°02'0 0.0
2018-Feb-12 03:52N 35°30' E 140°02'2 4.0
2018-Feb-12 03:30N 35°31' E 140°00'4 8.6
2018-Feb-12 03:00N 35°33' E 139°56'510.8
2018-Feb-12 02:30N 35°36' E 139°50'2 2.8
2018-Feb-12 01:57N 35°37' E 139°50'0 0.0
2018-Feb-12 01:30N 35°37' E 139°50'0 0.1
2018-Feb-12 00:57N 35°37' E 139°50'0 0.1
2018-Feb-12 00:12N 35°37' E 139°50'0 0.4
2018-Feb-11 23:59N 35°37' E 139°50'3 5.7
2018-Feb-11 23:31N 35°35' E 139°52'0 0.6
2018-Feb-11 23:00N 35°35' E 139°52'0 0.0
2018-Feb-11 22:09N 35°35' E 139°52'0 0.0
2018-Feb-11 16:24N 35°35' E 139°52'0 0.0
2018-Feb-11 15:30N 35°35' E 139°52'0 0.0
2018-Feb-11 12:39N 35°35' E 139°52'0 0.0
2018-Feb-11 07:24N 35°35' E 139°52'0 0.0
2018-Feb-11 06:48N 35°35' E 139°52'0 0.0
2018-Feb-11 06:24N 35°35' E 139°52'3 7.1
2018-Feb-11 05:58N 35°33' E 139°55'5 9.9
2018-Feb-11 05:30N 35°31' E 139°60'2 0.8
2018-Feb-11 03:11N 35°30' E 140°02'0 0.2
2018-Feb-11 02:59N 35°30' E 140°02'1 3.0
2018-Feb-11 02:30N 35°31' E 140°00'1 2.0
2018-Feb-11 01:59N 35°31' E 139°60'4 9.1
2018-Feb-11 01:30N 35°34' E 139°55'3 1.6
2018-Feb-10 23:33N 35°36' E 139°52'0 0.0
2018-Feb-10 23:30N 35°36' E 139°52'0 0.0
2018-Feb-10 22:51N 35°36' E 139°52'  

Dump ship's entire track history